Temperature
-0 0 -0 -0 0 -0 -1 -1 -1 -1 -2 -2 -2 -3 -2 -2 -3 -3 -3 -4 -4 -4 -4 -5 -5 -5 -5 -5 -5 -6 -6 -5 -5 -5 -5 -5 -5 -5 -5 -5 -5 -4 -4 -4
-1 -0 -1 -0 -0 -1 -1 -1 -2 -2 -2 -3 -3 -3 -3 -3 -4 -4 -4 -5 -5 -5 -5 -6 -6 -6 -6 -6 -6 -6 -6 -6 -6 -6 -6 -6 -6 -6 -6 -5 -5 -5 -5 -5
-2 -2 -1 -1 -1 -1 -2 -3 -2 -2 -2 -4 -4 -4 -4 -4 -4 -5 -5 -5 -5 -6 -6 -6 -6 -6 -6 -6 -6 -6 -6 -7 -7 -7 -6 -6 -6 -6 -6 -6 -6 -5 -5 -5
-3 -3 -1 -0 -2 -2 -2 -3 -4 -4 -4 -4 -4 -4 -4 -4 -5 -5 -5 -6 -6 -6 -6 -6 -7 -7 -7 -7 -7 -7 -7 -7 -7 -7 -7 -7 -7 -7 -7 -6 -6 -6 -6 -6
-3 -3 -2 -2 -2 -3 -3 -4 -5 -5 -5 -5 -5 -5 -5 -5 -5 -6 -6 -6 -6 -7 -7 -7 -7 -7 -7 -7 -7 -7 -7 -7 -7 -8 -8 -7 -7 -7 -7 -7 -7 -7 -6 -6
-4 -3 -2 -1 -3 -3 -3 -4 -4 -5 -5 -5 -6 -6 -6 -5 -6 -6 -6 -7 -7 -7 -7 -7 -7 -7 -7 -7 -8 -8 -8 -8 -8 -8 -8 -8 -8 -8 -8 -8 -7 -7 -7 -7
-4 -4 -3 -3 -4 -3 -3 -3 -4 -4 -5 -5 -6 -6 -6 -6 -7 -7 -7 -7 -7 -8 -8 -8 -8 -8 -8 -8 -8 -8 -8 -8 -8 -8 -8 -8 -8 -8 -8 -8 -8 -8 -7 -7
-5 -4 -3 -4 -5 -5 -4 -4 -4 -4 -5 -5 -6 -6 -7 -7 -7 -7 -8 -8 -8 -8 -8 -8 -8 -8 -8 -8 -9 -9 -9 -9 -9 -9 -9 -9 -9 -9 -9 -9 -9 -8 -8 -8
-4 -3 -4 -5 -4 -4 -4 -4 -5 -5 -5 -6 -6 -7 -7 -8 -8 -8 -8 -8 -8 -9 -9 -9 -9 -9 -9 -9 -9 -9 -9 -9 -9 -9 -9 -9 -9 -9 -9 -9 -9 -9 -9 -9
-6 -6 -6 -5 -5 -5 -5 -5 -5 -6 -6 -6 -7 -8 -8 -8 -8 -8 -9 -9 -9 -9 -9 -9 -9 -9 -9 -9 -9 -9 -9 -9 -9 -9 -10 -10 -10 -10 -10 -10 -10 -10 -10 -9
-6 -7 -6 -6 -5 -5 -5 -6 -6 -6 -7 -7 -8 -8 -8 -8 -9 -9 -9 -9 -9 -10 -10 -10 -10 -10 -10 -10 -10 -10 -10 -10 -10 -10 -10 -10 -10 -10 -11 -10 -11 -10 -10 -10
-5 -6 -6 -6 -5 -6 -6 -6 -7 -7 -7 -8 -8 -8 -9 -9 -9 -9 -10 -10 -10 -10 -10 -10 -10 -10 -10 -10 -10 -10 -10 -10 -10 -10 -11 -11 -11 -11 -11 -11 -11 -10 -10 -10
-5 -5 -5 -6 -6 -6 -7 -7 -7 -8 -8 -8 -8 -9 -9 -9 -9 -10 -10 -10 -10 -10 -11 -11 -11 -11 -11 -11 -11 -11 -11 -11 -11 -11 -11 -11 -11 -11 -11 -10 -10 -10 -10 -10
-6 -6 -7 -7 -7 -7 -7 -8 -8 -8 -8 -9 -9 -9 -10 -10 -10 -10 -10 -11 -11 -11 -11 -11 -11 -11 -11 -11 -11 -11 -11 -11 -11 -11 -11 -11 -12 -12 -12 -11 -11 -10 -10 -10
-6 -6 -7 -7 -7 -8 -8 -8 -8 -9 -9 -9 -10 -10 -10 -10 -10 -10 -11 -11 -11 -11 -11 -11 -11 -11 -11 -11 -11 -11 -11 -11 -12 -12 -12 -12 -12 -12 -12 -12 -12 -11 -11 -11
-7 -7 -7 -8 -8 -8 -9 -9 -9 -9 -9 -10 -10 -10 -10 -11 -11 -11 -11 -11 -11 -11 -12 -12 -12 -12 -12 -12 -12 -12 -12 -12 -12 -12 -12 -12 -12 -12 -12 -12 -12 -12 -12 -11
-8 -8 -8 -8 -9 -9 -9 -9 -9 -10 -10 -10 -10 -11 -11 -11 -11 -11 -11 -12 -12 -12 -12 -12 -12 -12 -12 -12 -12 -12 -12 -12 -12 -12 -12 -12 -12 -12 -12 -12 -12 -12 -12 -12
-7 -8 -8 -8 -9 -9 -9 -10 -10 -10 -10 -11 -11 -11 -11 -11 -12 -12 -12 -12 -12 -12 -12 -12 -12 -12 -12 -12 -12 -12 -12 -12 -12 -12 -12 -12 -12 -12 -12 -13 -13 -12 -12 -12
-8 -8 -8 -9 -9 -10 -10 -10 -10 -10 -11 -11 -11 -11 -12 -12 -12 -12 -12 -12 -12 -12 -12 -13 -13 -13 -13 -13 -13 -13 -13 -13 -13 -13 -13 -13 -13 -13 -13 -13 -13 -13 -13 -12
-9 -9 -9 -9 -10 -10 -10 -10 -11 -11 -11 -11 -12 -12 -12 -12 -12 -12 -13 -13 -13 -13 -13 -13 -13 -13 -13 -13 -13 -13 -13 -13 -13 -13 -13 -13 -13 -13 -13 -13 -13 -13 -13 -13
-9 -9 -9 -10 -10 -10 -10 -11 -11 -11 -11 -12 -12 -12 -12 -12 -12 -13 -13 -13 -13 -13 -13 -13 -13 -13 -13 -13 -13 -13 -13 -13 -13 -13 -13 -13 -13 -13 -13 -13 -13 -13 -13 -13
-10 -10 -10 -10 -10 -11 -11 -11 -11 -11 -12 -12 -12 -12 -12 -12 -13 -13 -13 -13 -13 -13 -13 -13 -13 -14 -14 -14 -14 -13 -13 -13 -13 -13 -13 -13 -13 -13 -13 -13 -13 -13 -13 -13
-10 -10 -10 -11 -11 -11 -11 -12 -12 -12 -12 -12 -12 -12 -12 -13 -13 -13 -13 -13 -13 -14 -14 -14 -14 -14 -14 -14 -14 -14 -13 -13 -13 -13 -13 -13 -13 -14 -13 -13 -13 -13 -13 -13
-11 -11 -11 -11 -11 -11 -12 -12 -12 -12 -12 -12 -12 -13 -13 -13 -13 -13 -13 -14 -14 -14 -14 -14 -14 -14 -14 -14 -14 -14 -14 -14 -14 -14 -14 -14 -14 -14 -14 -14 -14 -14 -13 -13
-11 -11 -12 -12 -12 -12 -12 -12 -12 -12 -12 -12 -13 -13 -13 -13 -13 -13 -13 -14 -14 -14 -14 -14 -14 -14 -14 -14 -14 -14 -14 -14 -14 -14 -14 -14 -14 -14 -14 -14 -14 -14 -14 -13
-12 -12 -12 -12 -12 -12 -12 -13 -13 -13 -13 -13 -13 -13 -13 -13 -13 -13 -14 -14 -14 -14 -14 -14 -14 -14 -14 -14 -14 -14 -14 -14 -14 -14 -14 -14 -14 -14 -14 -14 -14 -14 -14 -14
-12 -12 -12 -12 -12 -13 -13 -13 -13 -13 -13 -13 -13 -13 -13 -13 -14 -14 -14 -14 -14 -14 -14 -14 -14 -14 -14 -14 -14 -14 -14 -14 -14 -14 -14 -14 -14 -14 -14 -14 -14 -14 -14 -14
Wind_Speed
7 6 5 8 10 8 10 10 9 9 8 9 7 6 5 3 3 3 4 4 4 4 4 5 5 5 5 5 6 6 6 6 7 8 7 7 8 8 8 8 9 9 9 9
5 5 6 10 11 10 11 9 10 9 10 7 3 1 2 2 3 3 4 5 5 5 5 6 6 6 7 6 6 6 6 7 7 8 8 8 8 8 8 8 8 9 9 9
4 4 5 8 8 8 5 4 6 10 9 3 2 3 4 4 3 3 5 6 5 5 6 6 6 6 7 7 7 6 6 7 7 7 8 8 9 9 8 8 8 9 9 9
2 2 6 6 1 4 5 4 5 5 4 3 4 3 3 3 2 3 5 5 5 5 6 6 6 6 6 6 7 6 6 7 7 7 8 8 8 9 8 8 8 8 9 9
2 4 8 6 2 3 4 4 3 5 4 3 1 1 2 2 1 3 4 4 4 5 5 6 7 7 7 6 6 6 7 7 7 8 8 8 9 9 8 8 8 8 9 9
3 4 7 5 1 1 2 4 2 3 4 2 1 2 4 3 4 4 4 4 4 5 5 6 7 6 6 6 6 7 8 8 8 7 8 8 9 9 8 8 8 9 9 8
6 6 8 4 1 2 3 5 1 2 3 3 4 5 4 4 4 3 4 5 5 5 5 6 7 6 6 6 6 7 8 8 8 7 7 7 7 7 7 8 8 8 9 9
5 6 8 2 5 5 5 1 1 1 2 3 4 3 3 3 4 4 5 5 5 5 6 6 6 6 7 7 7 7 7 8 8 8 7 7 7 7 7 7 7 7 7 8
8 7 2 4 4 3 1 2 1 1 2 2 3 3 3 3 3 4 5 5 5 5 6 6 6 5 6 8 7 7 8 8 8 8 7 6 6 7 6 6 6 6 6 7
4 6 3 3 2 1 1 2 1 1 1 1 2 3 3 4 4 4 5 5 5 5 6 7 7 7 6 7 7 6 7 8 8 7 7 6 6 6 5 6 6 6 7 7
4 4 2 3 4 3 2 1 1 1 1 2 2 3 3 3 4 4 5 5 5 5 6 7 7 7 8 7 6 6 7 7 7 7 6 6 6 5 6 5 6 7 6 6
6 5 4 4 3 2 2 2 2 2 2 2 2 3 3 4 3 4 4 5 5 6 7 7 7 7 7 7 6 6 7 7 6 6 6 6 6 7 10 10 12 12 12 10
4 2 3 3 1 1 2 2 2 2 3 3 2 3 3 3 3 4 5 5 6 6 7 7 7 7 7 7 7 6 6 6 6 6 6 6 6 7 8 10 12 12 13 13
2 1 1 2 3 2 2 2 1 1 2 2 2 2 3 3 4 4 5 6 6 6 6 6 7 7 7 7 7 6 6 7 7 5 6 6 6 6 6 7 8 8 10 13
2 3 4 2 1 1 1 1 1 2 2 2 2 2 3 4 4 5 5 6 6 6 6 6 7 8 7 6 7 7 6 5 5 5 5 6 6 6 6 7 7 7 7 9
2 1 2 2 2 2 1 1 2 3 3 3 3 4 4 4 4 5 5 5 5 6 7 6 7 7 7 6 7 6 6 9 8 6 6 6 6 6 6 6 6 6 7 7
2 3 3 3 4 4 4 4 4 4 3 4 4 4 4 4 4 5 5 5 5 6 6 6 7 7 7 6 6 5 5 7 10 7 5 6 6 5 5 6 6 6 6 8
5 5 4 4 4 4 4 3 3 3 3 4 3 3 3 4 5 6 6 6 6 6 6 6 7 7 6 6 6 5 5 5 5 5 5 5 6 5 5 6 6 7 7 8
2 2 3 3 3 3 3 3 3 3 3 2 3 3 4 4 5 5 5 5 5 6 6 7 10 8 7 7 8 4 4 5 6 5 5 7 7 5 5 5 6 6 6 6
1 1 1 2 2 2 2 2 2 2 3 2 3 3 4 4 4 5 5 5 4 5 6 7 7 6 6 7 8 4 4 5 5 5 5 5 5 5 5 6 6 6 6 6
1 1 1 1 1 1 1 2 2 3 3 2 3 4 4 5 4 4 4 5 5 5 6 8 6 5 6 6 6 3 4 4 5 5 5 5 5 6 5 6 6 6 6 6
1 1 1 1 1 2 2 2 2 2 3 3 3 3 4 4 5 4 4 4 5 9 6 4 5 8 9 7 3 3 4 4 4 4 5 5 5 5 5 6 6 6 6 6
1 1 1 1 1 2 2 2 2 2 3 3 3 4 4 4 4 4 5 4 5 9 6 4 8 11 10 4 3 4 4 5 5 5 5 5 5 5 5 6 5 6 6 6
1 1 2 1 1 1 2 3 3 3 3 4 4 4 4 4 4 4 4 7 9 9 5 7 11 10 8 3 3 4 4 5 5 5 5 5 5 5 5 5 5 6 6 6
1 1 1 1 1 2 2 3 3 3 3 3 4 4 3 3 4 4 4 5 8 8 5 7 10 10 5 3 4 4 5 5 5 5 4 5 5 5 5 5 5 6 6 6
2 2 2 2 2 2 2 2 3 3 3 4 4 4 3 3 3 3 3 4 6 7 5 4 5 6 4 4 5 5 5 6 6 5 5 5 6 6 6 5 6 6 6 6
2 2 2 2 2 2 2 2 3 3 3 4 5 4 4 4 4 4 4 4 4 5 4 4 4 4 4 4 5 5 5 5 5 5 5 5 5 6 6 6 6 6 7 7
Wind_Direction
257 267 249 249 250 227 219 218 225 247 243 256 253 242 246 259 282 302 311 310 300 301 302 308 312 312 309 303 307 309 307 306 303 303 302 305 307 306 306 307 306 303 301 298
275 273 270 270 261 242 235 232 237 254 265 266 264 238 266 266 276 294 303 307 306 309 310 310 311 311 313 306 302 303 301 300 303 307 308 307 307 307 308 306 306 306 302 299
266 309 329 273 246 218 213 211 205 232 245 258 270 255 250 250 252 275 293 304 307 306 304 303 303 304 303 302 301 301 300 302 305 307 308 307 308 308 305 305 306 305 303 301
263 353 253 248 216 191 200 238 221 226 247 241 253 262 249 218 226 275 298 304 302 302 304 303 301 303 302 302 306 301 300 302 305 308 307 307 306 305 304 304 303 302 303 301
188 252 273 285 252 180 194 261 236 228 253 278 317 320 271 231 259 277 284 291 290 294 297 303 306 307 308 307 311 309 304 303 304 305 304 305 305 304 304 304 304 303 302 302
175 225 252 256 217 160 103 276 250 204 234 248 99 280 270 299 318 311 313 312 310 310 312 312 310 313 312 310 311 310 309 305 300 300 299 300 300 301 303 303 302 305 306 304
206 233 261 254 207 117 178 256 235 197 213 205 212 232 267 303 313 317 319 319 322 322 321 315 316 321 316 312 306 305 310 311 305 301 297 295 297 301 302 305 305 305 305 307
183 213 253 189 136 180 222 260 187 207 214 222 243 267 291 305 311 320 324 325 327 326 323 322 324 327 322 315 311 312 314 312 310 306 304 308 303 304 305 306 306 307 309 312
196 215 241 162 179 206 187 198 230 231 250 233 255 277 300 303 305 312 316 318 322 320 321 325 327 326 317 312 313 316 315 313 314 315 310 308 304 305 308 309 310 312 314 315
237 256 245 219 226 279 240 214 239 251 258 236 253 280 295 302 309 313 317 319 322 324 324 323 325 321 310 311 314 314 313 314 318 319 317 314 313 312 311 311 311 311 312 313
244 267 291 265 240 238 251 227 250 292 262 243 251 283 286 293 303 308 316 319 320 318 316 314 319 318 320 319 316 313 313 315 319 320 316 317 317 314 313 305 306 311 308 307
234 226 210 241 236 220 211 228 227 231 275 278 255 266 281 286 288 296 306 312 317 316 315 315 318 319 321 322 320 316 318 320 319 319 319 322 322 323 326 326 324 325 323 320
227 237 216 235 246 215 216 230 228 221 233 264 274 266 272 282 289 300 309 313 311 310 311 313 316 318 321 324 324 319 312 313 315 320 321 320 322 325 326 331 335 336 334 333
211 158 229 240 241 242 226 228 219 245 259 259 272 284 285 290 298 304 306 306 307 310 311 313 316 317 319 321 324 321 317 317 319 314 316 316 318 320 321 324 328 331 335 337
249 216 216 227 224 238 216 183 233 279 291 297 291 289 290 294 299 301 304 312 317 316 315 317 318 316 319 322 326 322 320 318 318 316 318 318 318 321 322 324 324 325 330 337
260 226 190 198 234 252 257 237 246 265 274 281 286 290 290 288 293 301 307 312 315 313 313 314 313 315 319 322 323 322 319 322 328 326 325 324 323 323 323 325 326 328 330 332
194 231 232 244 254 256 253 247 243 252 262 269 276 288 298 304 307 308 311 311 306 302 304 309 313 318 320 322 321 320 318 321 326 328 325 323 322 322 324 325 325 326 325 327
222 228 224 224 238 248 259 258 249 251 257 265 280 287 289 290 293 299 306 313 316 314 314 315 317 322 323 323 324 318 315 316 319 320 322 322 323 325 326 325 325 325 325 328
232 229 231 235 234 232 242 248 249 254 265 269 271 273 276 279 284 292 302 308 310 309 309 310 322 329 321 318 325 313 315 317 319 320 320 324 329 326 324 324 324 324 325 329
291 270 251 252 250 233 246 254 251 262 267 260 265 278 287 290 292 297 299 292 278 280 294 310 320 318 313 311 322 317 315 314 317 319 321 322 321 321 320 321 322 323 325 328
305 292 285 276 288 288 260 248 247 266 279 269 262 271 280 289 290 289 294 300 300 300 307 318 323 312 308 317 327 325 318 316 316 316 316 317 317 318 318 320 321 322 324 326
300 285 285 291 302 312 305 283 262 270 281 283 281 280 287 294 298 297 282 278 295 312 319 309 307 311 323 335 339 328 319 315 312 311 310 311 313 314 314 316 316 317 319 320
325 311 297 290 289 297 308 297 280 272 273 277 280 284 288 291 292 295 302 299 303 312 319 305 313 321 333 347 333 321 314 311 308 306 306 306 307 309 308 309 310 312 313 315
346 333 319 320 336 326 311 308 306 297 284 282 280 281 287 298 297 281 283 304 315 316 314 313 321 327 336 338 318 313 308 304 300 298 300 303 304 304 302 302 304 306 308 311
350 343 345 345 329 305 300 311 318 315 314 310 305 298 290 282 284 296 297 302 312 317 315 316 321 325 329 309 305 302 301 297 297 303 303 302 301 301 298 297 298 300 304 305
346 335 319 303 297 298 303 308 312 314 318 318 317 312 308 306 299 300 302 302 304 315 316 307 309 313 310 303 300 299 297 301 306 306 298 297 297 298 297 299 299 299 299 300
351 349 345 339 333 322 312 308 307 308 309 305 305 310 315 316 314 313 312 310 309 309 306 306 306 305 302 301 300 298 297 297 296 296 295 293 293 293 294 294 294 296 297 297
Height
1542 1540 1540 1539 1537 1538 1540 1539 1540 1532 1531 1526 1525 1525 1525 1524 1524 1523 1522 1520 1519 1517 1515 1513 1510 1508 1505 1502 1500 1497 1494 1491 1488 1485 1482 1480 1477 1473 1470 1467 1465 1462 1460 1458
1542 1538 1537 1535 1530 1532 1532 1532 1532 1530 1528 1522 1522 1522 1522 1522 1521 1520 1519 1518 1516 1514 1512 1509 1507 1504 1501 1498 1495 1493 1489 1487 1484 1481 1478 1475 1472 1469 1466 1463 1460 1457 1455 1452
1543 1540 1538 1533 1526 1526 1527 1526 1527 1527 1523 1521 1522 1521 1520 1519 1518 1518 1516 1515 1513 1510 1508 1506 1503 1500 1497 1494 1491 1488 1485 1483 1480 1477 1474 1471 1468 1465 1461 1458 1455 1452 1449 1447
1546 1545 1540 1524 1521 1521 1523 1523 1522 1521 1520 1519 1519 1518 1518 1517 1516 1515 1513 1511 1509 1507 1504 1502 1499 1496 1493 1490 1487 1484 1481 1479 1476 1473 1470 1467 1464 1461 1457 1454 1451 1447 1444 1442
1546 1545 1534 1523 1520 1520 1522 1521 1519 1519 1518 1518 1517 1517 1515 1514 1514 1512 1511 1508 1506 1504 1501 1498 1495 1492 1489 1486 1483 1480 1477 1475 1472 1469 1466 1462 1459 1456 1453 1450 1446 1443 1440 1437
1544 1541 1531 1519 1518 1517 1520 1521 1516 1516 1516 1516 1516 1518 1514 1512 1510 1509 1507 1505 1502 1500 1497 1495 1491 1488 1485 1482 1479 1476 1473 1471 1468 1465 1462 1459 1455 1452 1449 1446 1442 1439 1436 1433
1541 1539 1526 1518 1517 1518 1523 1517 1514 1513 1513 1514 1514 1514 1512 1509 1507 1506 1504 1501 1499 1496 1494 1491 1488 1485 1481 1478 1475 1473 1470 1467 1464 1461 1458 1455 1452 1449 1445 1442 1439 1436 1432 1429
1537 1537 1525 1515 1516 1518 1515 1512 1512 1511 1511 1511 1510 1509 1508 1506 1504 1502 1500 1498 1496 1493 1490 1488 1484 1481 1478 1475 1472 1469 1466 1463 1460 1457 1454 1451 1448 1445 1442 1438 1435 1432 1428 1425
1522 1518 1512 1511 1510 1511 1511 1510 1510 1510 1509 1509 1507 1506 1505 1503 1501 1500 1498 1495 1493 1490 1487 1484 1481 1478 1475 1472 1469 1466 1463 1460 1457 1453 1451 1448 1445 1441 1438 1435 1432 1429 1426 1422
1516 1511 1509 1509 1509 1509 1508 1508 1508 1508 1507 1506 1505 1503 1502 1500 1498 1496 1494 1492 1490 1487 1484 1481 1478 1475 1472 1469 1466 1463 1460 1457 1454 1450 1447 1444 1442 1439 1436 1432 1430 1427 1424 1420
1512 1508 1507 1506 1506 1506 1506 1506 1505 1505 1505 1503 1502 1501 1499 1497 1495 1494 1491 1489 1487 1484 1481 1478 1475 1472 1469 1466 1463 1460 1457 1454 1451 1448 1445 1441 1439 1436 1433 1431 1429 1426 1422 1419
1506 1503 1504 1503 1503 1503 1503 1503 1502 1502 1501 1501 1499 1498 1496 1494 1493 1491 1488 1486 1484 1481 1478 1475 1472 1469 1466 1463 1460 1458 1455 1452 1449 1446 1442 1439 1436 1433 1431 1429 1426 1423 1420 1418
1500 1500 1500 1500 1501 1501 1500 1500 1500 1499 1498 1497 1496 1495 1493 1491 1490 1488 1486 1483 1481 1478 1475 1472 1469 1466 1463 1460 1458 1455 1453 1450 1447 1444 1441 1438 1434 1431 1427 1425 1423 1420 1417 1415
1498 1499 1498 1498 1498 1498 1498 1497 1497 1496 1495 1494 1493 1492 1490 1488 1486 1485 1482 1480 1478 1475 1473 1470 1467 1464 1461 1458 1456 1453 1451 1448 1445 1442 1439 1436 1433 1430 1427 1423 1420 1417 1414 1412
1496 1496 1496 1495 1495 1495 1495 1494 1493 1493 1492 1491 1490 1488 1486 1485 1483 1481 1479 1477 1475 1472 1470 1467 1464 1462 1459 1456 1454 1451 1448 1446 1443 1440 1438 1435 1432 1429 1426 1422 1419 1416 1412 1409
1493 1493 1493 1492 1492 1492 1491 1491 1490 1489 1488 1487 1486 1485 1483 1481 1480 1478 1476 1474 1471 1469 1467 1464 1462 1459 1457 1454 1452 1449 1447 1444 1442 1439 1436 1434 1431 1428 1424 1421 1418 1415 1411 1408
1490 1489 1489 1489 1489 1488 1488 1487 1487 1486 1485 1484 1483 1481 1480 1478 1476 1475 1473 1471 1469 1466 1464 1462 1459 1457 1455 1452 1450 1447 1445 1442 1440 1437 1435 1432 1429 1426 1423 1420 1417 1414 1411 1408
1487 1486 1486 1486 1485 1485 1485 1484 1484 1483 1482 1481 1480 1478 1476 1475 1473 1471 1469 1468 1466 1464 1462 1460 1458 1455 1453 1451 1448 1446 1443 1440 1438 1435 1433 1430 1428 1425 1422 1419 1416 1413 1410 1407
1484 1484 1483 1483 1483 1482 1482 1481 1481 1480 1479 1478 1476 1475 1473 1472 1470 1468 1467 1465 1463 1460 1459 1457 1455 1453 1451 1449 1446 1444 1441 1439 1436 1433 1431 1428 1426 1423 1420 1417 1414 1412 1409 1406
1481 1481 1481 1480 1480 1479 1479 1478 1478 1477 1476 1474 1473 1472 1470 1469 1467 1466 1464 1462 1460 1458 1456 1454 1452 1450 1448 1446 1444 1442 1439 1436 1434 1431 1429 1426 1424 1421 1419 1416 1413 1410 1408 1405
1479 1479 1478 1478 1477 1477 1476 1476 1475 1474 1473 1472 1470 1469 1467 1466 1464 1463 1461 1459 1458 1456 1453 1451 1449 1447 1445 1443 1441 1439 1437 1434 1432 1429 1427 1424 1422 1419 1417 1415 1412 1409 1406 1404
1477 1476 1476 1476 1475 1474 1474 1473 1472 1471 1470 1469 1468 1466 1464 1463 1461 1460 1458 1457 1454 1453 1450 1448 1446 1445 1443 1441 1438 1436 1434 1432 1429 1427 1425 1422 1420 1418 1415 1413 1410 1408 1405 1403
1475 1475 1474 1473 1472 1472 1472 1471 1470 1469 1467 1466 1465 1463 1462 1460 1459 1457 1455 1453 1451 1449 1448 1446 1444 1442 1440 1438 1436 1433 1431 1429 1427 1425 1423 1420 1418 1416 1413 1411 1409 1406 1404 1401
1473 1473 1472 1471 1471 1470 1469 1468 1467 1466 1465 1464 1463 1461 1459 1457 1456 1454 1452 1450 1448 1446 1445 1443 1441 1439 1437 1435 1433 1431 1429 1427 1425 1423 1420 1418 1416 1414 1411 1409 1407 1404 1402 1400
1472 1471 1471 1470 1469 1468 1467 1466 1465 1464 1462 1461 1460 1459 1457 1455 1453 1451 1449 1447 1446 1444 1442 1440 1438 1436 1434 1432 1430 1428 1426 1424 1422 1420 1418 1416 1414 1412 1409 1407 1405 1402 1400 1398
1471 1470 1469 1468 1467 1466 1465 1464 1462 1461 1460 1458 1457 1456 1454 1452 1450 1449 1447 1445 1443 1441 1439 1437 1435 1434 1432 1430 1428 1426 1424 1422 1420 1417 1415 1413 1411 1409 1407 1405 1402 1400 1398 1396
1470 1469 1468 1467 1466 1465 1463 1462 1461 1459 1458 1456 1454 1453 1451 1449 1448 1446 1444 1442 1441 1439 1437 1435 1433 1431 1429 1427 1425 1423 1421 1419 1417 1414 1412 1410 1408 1406 1404 1402 1400 1397 1395 1393